CW5542 Weather Reports


time (UTC)temp
F
wind
direction
speed
knots
gust
knots
rain 1hr
in
rain 24hr
in
rain mn
in
humidity
%
barometer
mb
20260508180954 63 218 0.0 12.2 0.00 0.00 0.00 40 1008.7
20260508175953 63 306 0.0 13.9 0.00 0.00 0.00 37 1008.8
20260508174952 62 234 0.0 15.6 0.00 0.00 0.00 37 1008.8
20260508173952 62 337 0.0 17.4 0.00 0.00 0.00 39 1008.9
20260508172951 61 203 0.0 1.7 0.00 0.00 0.00 37 1009.2
20260508170949 61 175 0.0 12.2 0.00 0.00 0.00 39 1009.7
20260508165948 60 208 0.0 3.5 0.00 0.00 0.00 39 1009.8
20260508163946 60 250 0.0 8.7 0.00 0.00 0.00 42 1010.1
20260508162946 60 299 0.0 0.0 0.00 0.00 0.00 42 1010.0
20260508161945 59 169 0.0 8.7 0.00 0.00 0.00 45 1010.1
20260508160944 59 172 0.0 0.0 0.00 0.00 0.00 45 1010.1
20260508155943 59 206 0.0 1.7 0.00 0.00 0.00 41 1010.3
20260508154942 58 208 0.0 10.4 0.00 0.00 0.00 45 1010.3
20260508153942 56 196 0.0 0.0 0.00 0.00 0.00 45 1010.4
20260508152941 56 294 0.0 0.0 0.00 0.00 0.00 51 1010.5
20260508151940 56 154 0.0 0.0 0.00 0.00 0.00 51 1010.6
20260508144007 53 180 0.0 0.0 0.00 0.00 0.00 58 1010.9
20260508143006 52 219 0.0 0.0 0.00 0.00 0.00 63 1011.0
20260508142005 51 203 0.0 0.0 0.00 0.00 0.00 68 1010.9
20260508135003 49 227 0.0 0.0 0.00 0.00 0.00 81 1011.2
20260508134002 48 218 0.0 0.0 0.00 0.00 0.00 83 1011.2
20260508133001 48 62 0.0 3.5 0.00 0.00 0.00 84 1011.3
20260508130959 46 312 0.0 0.0 0.00 0.00 0.00 88 1011.3
20260508124957 45 232 0.0 0.0 0.00 0.00 0.00 90 1011.3
20260508123956 45 271 0.0 0.0 0.00 0.00 0.00 91 1011.3
20260508121955 44 227 0.0 0.0 0.00 0.00 0.00 93 1011.2
20260508120954 43 230 0.0 7.0 0.00 0.00 0.00 94 1010.9
20260508114952 41 185 0.0 0.0 0.00 0.00 0.00 94 1010.7
20260508113952 40 185 0.0 3.5 0.00 0.00 0.00 94 1010.7
20260508111951 38 184 0.0 0.0 0.00 0.00 0.00 93 1010.6
20260508110950 38 185 0.0 0.0 0.00 0.00 0.00 92 1010.4
20260508105949 38 185 0.0 0.0 0.00 0.00 0.00 92 1010.2
20260508104948 38 185 0.0 0.0 0.00 0.00 0.00 92 1010.2
20260508103947 38 185 0.0 0.0 0.00 0.00 0.00 92 1010.1
20260508102946 38 185 0.0 0.0 0.00 0.00 0.00 92 1010.1
20260508100944 39 185 0.0 0.0 0.00 0.00 0.00 92 1010.1
20260508094944 39 185 0.0 0.0 0.00 0.00 0.00 91 1010.2
20260508071948 40 185 0.0 0.0 0.00 0.00 0.00 89 1010.8
20260508065947 40 185 0.0 0.0 0.00 0.00 0.00 88 1010.9
20260508062946 41 185 0.0 0.0 0.00 0.00 0.00 84 1010.9
20260508061945 42 185 0.0 0.0 0.00 0.00 0.00 84 1011.0
20260508060945 42 185 0.0 0.0 0.00 0.00 0.00 84 1011.0
20260508054943 43 185 0.0 0.0 0.00 0.00 0.00 83 1011.0
20260508053943 43 185 0.0 0.0 0.00 0.00 0.00 83 1010.9
20260508052943 43 185 0.0 0.0 0.00 0.00 0.00 83 1010.9
20260508051942 43 185 0.0 0.0 0.00 0.00 0.00 84 1011.0
20260508050941 43 185 0.0 0.0 0.00 0.00 0.00 84 1010.9
20260508045940 43 183 0.0 0.0 0.00 0.00 0.00 84 1010.9
20260508044940 43 184 0.0 0.0 0.00 0.00 0.00 83 1010.8
20260508043939 43 184 0.0 0.0 0.00 0.00 0.00 82 1010.7
20260508042938 43 184 0.0 0.0 0.00 0.00 0.00 81 1010.8
20260508042008 44 184 0.0 0.0 0.00 0.00 0.00 80 1010.8
20260508041007 44 184 0.0 0.0 0.00 0.00 0.00 79 1010.8
20260508040007 44 184 0.0 0.0 0.00 0.00 0.00 79 1010.8
20260508034005 45 184 0.0 0.0 0.00 0.00 0.00 78 1010.8
20260508033005 45 183 0.0 0.0 0.00 0.00 0.00 77 1010.8
20260508032004 46 164 0.0 0.0 0.00 0.00 0.00 76 1010.8
20260508031004 46 183 0.0 0.0 0.00 0.00 0.00 76 1010.9
20260508025002 46 202 0.0 0.0 0.00 0.00 0.00 73 1011.0
20260508024002 46 202 0.0 0.0 0.00 0.00 0.00 72 1011.0
20260508022000 47 201 0.0 0.0 0.00 0.00 0.00 70 1010.8
20260508021000 47 202 0.0 0.0 0.00 0.00 0.00 69 1010.9
20260508015959 48 202 0.0 0.0 0.00 0.00 0.00 68 1010.9
20260508014959 48 202 0.0 0.0 0.00 0.00 0.00 66 1010.8
20260508013958 49 202 0.0 0.0 0.00 0.00 0.00 65 1010.5
20260508012957 49 203 0.0 0.0 0.00 0.00 0.00 64 1010.6
20260508011957 50 202 0.0 10.4 0.00 0.00 0.00 63 1010.8
20260508010956 50 210 8.7 10.4 0.00 0.00 0.00 61 1010.9
20260508005956 50 230 0.0 3.5 0.00 0.00 0.00 59 1010.8
20260508004955 51 152 0.0 3.5 0.00 0.00 0.00 56 1010.7
20260508003954 51 284 0.0 0.0 0.00 0.00 0.00 54 1010.6
20260508002954 51 198 0.0 0.0 0.00 0.00 0.00 53 1010.4
20260508001953 52 218 0.0 0.0 0.00 0.00 0.00 51 1010.4
20260508000953 52 299 0.0 1.7 0.00 0.00 0.00 49 1010.4